Zurück zum Katalog

LYNK TOWER 6

AktivKommunikationSSO
NORAD 59123·PAYLOAD·🇺🇸 United States

Gestartet Mar 4, 2024 von Vandenberg Space Force Base

Loading…

Nächste Überflüge (nächste 24 Stunden)

TLE

AktuellSource: Space-Track

Epoche: Sep 14, 2026, 04:39 UTC

1 59123U 24043AB  26257.19391871  .00004312  00000-0  14228-3 0  9994
2 59123  97.5729  36.0099 0008501 292.2842  67.7497 15.31956142140654

Verfolge LYNK TOWER 6 in Echtzeit mit AllMySat

Download on the App Store